Change the Weather History Date:

Thursday, August 28, 2014

  Actual Average Record
Temperature  
Mean Temperature 69 °F 67 °F  
Max Temperature 73 °F 79 °F 100 °F (1984)
Min Temperature 65 °F 55 °F 36 °F (1965)
Degree Days  
Heating Degree Days 0 2  
Month to date heating degree days 12 29  
Since 1 June heating degree days 62 118  
Since 1 July heating degree days 32 45  
Cooling Degree Days 4 4  
Month to date cooling degree days 151 157  
Year to date cooling degree days 495 497  
Since 1 June cooling degree days 416 466  
Growing Degree Days 18 (Base 50)    
Moisture  
Dew Point 62 °F    
Average Humidity 83    
Maximum Humidity 93    
Minimum Humidity 73    
Precipitation  
Precipitation T in 0.09 in 1.61 in (1892)
Month to date precipitation 1.92 2.29  
Year to date precipitation 16.27 15.79  
Snow  
Snow 0.00 in 0.00 in 0.00 in ()
Month to date snowfall 0.0 0.0  
Since 1 June snowfall 0.0 0.0  
Since 1 July snowfall 0.0 0.0  
Snow Depth 0.00 in    
Sea Level Pressure  
Sea Level Pressure 29.93 in    
Wind  
Wind Speed 11 mph (SSE)    
Max Wind Speed 17 mph    
Max Gust Speed 23 mph    
Visibility 10 miles    
Events Rain    
T = Trace of Precipitation, MM = Missing Value Source: NWS Daily Summary

Daily Weather History Graph

Daily Weather History Graph

Search for Another Location

Airport or City:

Trip Planner

Search our weather history database for the weather conditions in past years. The results will help you decide how hot, cold, wet, or windy it might be!

Date:

Astronomy

Aug. 28, 2014 Rise Set
Actual Time 6:41 AM CDT 8:14 PM CDT
Civil Twilight 6:09 AM CDT 8:46 PM CDT
Nautical Twilight 5:31 AM CDT 9:24 PM CDT
Astronomical Twilight 4:49 AM CDT 10:06 PM CDT
Moon 9:48 AM CDT (8/28) 9:23 PM CDT (8/28)
Length of Visible Light 14h 36m
Length of Day
13h 32m
Waxing Crescent, 9% of the Moon is Illuminated
Aug 28
Waxing Crescent
Sep 2
First Quarter
Sep 8
Full
Sep 15
Last Quarter
Sep 24
New

Hourly Weather History & Observations

Time (CDT) Temp. Dew Point Humidity Pressure Visibility Wind Dir Wind Speed Gust Speed Precip Events Conditions
12:53 AM 64.9 °F 60.1 °F 84% 30.04 in 10.0 mi ESE 8.1 mph - N/A   Overcast
1:53 AM 64.9 °F 60.1 °F 84% 30.03 in 10.0 mi SE 8.1 mph - N/A   Overcast
2:53 AM 66.0 °F 60.1 °F 81% 30.02 in 10.0 mi SE 10.4 mph - N/A   Overcast
3:53 AM 64.9 °F 59.0 °F 81% 30.00 in 10.0 mi SE 11.5 mph - N/A   Mostly Cloudy
4:53 AM 66.0 °F 59.0 °F 78% 30.00 in 10.0 mi SSE 12.7 mph - N/A   Overcast
5:53 AM 66.0 °F 59.0 °F 78% 30.00 in 10.0 mi SE 9.2 mph - N/A   Overcast
6:53 AM 66.0 °F 59.0 °F 78% 29.98 in 10.0 mi SSE 11.5 mph - N/A   Overcast
7:53 AM 66.0 °F 59.0 °F 78% 29.99 in 10.0 mi SSE 12.7 mph - N/A   Overcast
8:53 AM 66.9 °F 60.1 °F 79% 29.98 in 10.0 mi SE 10.4 mph - N/A   Overcast
9:53 AM 68.0 °F 60.8 °F 78% 29.98 in 10.0 mi SSE 15.0 mph - N/A   Mostly Cloudy
10:53 AM 68.0 °F 61.0 °F 78% 29.97 in 10.0 mi SE 12.7 mph - N/A   Overcast
11:53 AM 71.1 °F 63.0 °F 75% 29.96 in 10.0 mi SSE 11.5 mph 18.4 mph N/A   Overcast
12:53 PM 70.0 °F 62.1 °F 76% 29.95 in 10.0 mi South 13.8 mph - N/A   Overcast
1:01 PM 70.0 °F 61.0 °F 73% 29.95 in 10.0 mi SSE 13.8 mph - N/A   Overcast
1:53 PM 70.0 °F 62.1 °F 76% 29.94 in 10.0 mi SSE 12.7 mph - N/A   Overcast
2:36 PM 72.0 °F 63.0 °F 73% 29.93 in 10.0 mi SSE 11.5 mph - N/A   Overcast
2:46 PM 72.0 °F 64.0 °F 76% 29.93 in 10.0 mi South 13.8 mph - N/A   Overcast
2:53 PM 72.0 °F 64.0 °F 76% 29.92 in 10.0 mi South 11.5 mph - N/A   Overcast
3:17 PM 72.0 °F 64.0 °F 76% 29.92 in 10.0 mi SSE 11.5 mph 20.7 mph N/A   Mostly Cloudy
3:53 PM 72.0 °F 64.0 °F 76% 29.91 in 10.0 mi SSE 12.7 mph - N/A   Overcast
4:13 PM 72.0 °F 64.0 °F 76% 29.91 in 10.0 mi SSE 15.0 mph - N/A   Overcast
4:53 PM 71.1 °F 64.0 °F 78% 29.90 in 10.0 mi SSE 18.4 mph - N/A   Overcast
5:49 PM 69.8 °F 64.4 °F 83% 29.89 in 10.0 mi SE 10.4 mph - N/A   Scattered Clouds
5:53 PM 70.0 °F 64.0 °F 81% 29.88 in 10.0 mi SE 12.7 mph - N/A   Partly Cloudy
6:53 PM 68.0 °F 64.0 °F 87% 29.89 in 10.0 mi SSE 10.4 mph - 0.00 in Rain Light Rain
7:53 PM 66.9 °F 64.0 °F 90% 29.87 in 10.0 mi SE 10.4 mph - 0.00 in   Mostly Cloudy
8:53 PM 66.9 °F 64.0 °F 90% 29.87 in 10.0 mi SSE 8.1 mph - N/A   Overcast
9:05 PM 66.9 °F 64.0 °F 90% 29.87 in 10.0 mi SSE 8.1 mph - N/A   Overcast
9:49 PM 66.2 °F 64.4 °F 94% 29.86 in 10.0 mi SE 9.2 mph - N/A   Mostly Cloudy
9:53 PM 66.9 °F 64.0 °F 90% 29.86 in 10.0 mi SE 9.2 mph - N/A   Scattered Clouds
10:53 PM 66.9 °F 64.0 °F 90% 29.85 in 10.0 mi SSE 12.7 mph - 0.00 in Rain Light Rain
11:20 PM 66.2 °F 64.4 °F 94% 29.86 in 10.0 mi South 6.9 mph - N/A   Mostly Cloudy
11:34 PM 66.9 °F 64.0 °F 90% 29.85 in 10.0 mi SE 11.5 mph - 0.00 in   Overcast
11:53 PM 66.9 °F 64.0 °F 90% 29.84 in 10.0 mi SSE 8.1 mph - 0.00 in   Overcast